Погода Лешуконское

Поиск расширенной информации на нашем сайте:

Полезная информация:

Новости сайта



02.01.2020
Опубликован Долгосрочный прогноз погоды по городам России и ближнего зарубежья на январь 2020 года.
Карты: Прогноз на январь и февраль 2020 года, Сравнение прогнозируемой аномалии приземной температуры воздуха на январь 2020 года по разным моделям.




Погода Лешуконское - сегодня

Время (UTC), дата Ветер
(°,м/с) 
Видим.   Явления Облачность Т
(°С)
Тd
(°С)
f(%) Тe
(°С)
Pmin
(гПа)
dP
(гПа)
Po
(мм)
O2
(г/м3)
Тmin Tmax R s Состояние
почвы
15 29.11.20 140 (ЮВ) 50000 м    10/0 верхняя 
[Ci fib]
-11.1 -13.1 85 -15  1039.1  -1.3  772  326    -11       
18 29.11.20 140 (ЮВ) 20000 м    10/10 210 м 
[St]
-10 -11.3 90 -15  1038.7  -0.4  772  324           
21 29.11.20 120 (ЮВ) 20000 м    10/10 180 м 
[St]
-7.6 -8.6 93 -10  1038.2  -0.3  772  321           
00 30.11.20 140 (ЮВ) 20000 м  {снег}  10/10 180 м 
[St]
-5.6 -6.3 95 -9  1037.2  -1  771  318           
03 30.11.20 120 (ЮВ) 20000 м    10/10 210 м 
[St]
-5.2 -6.2 93 -8  1035.9  -1.3  770  317  -11.1    0.0  равномерный
сухой снег
100% 
06 30.11.20 150 (ЮВ) 10 км  снежные зёрна  10/10 180 м 
[St]
-4.6 -5.5 93 -7  1034.9  -1  769  316           
09 30.11.20 140 (ЮВ) 20000 м  {снег}  10/10 100 м 
[St]
-4 -4.8 94 -8  1034  -0.9  768  315           
12 30.11.20 150 (ЮВ) 5{11}  20000 м  {снег}  10/10 180 м 
[St]
-4.3 -5.5 91 -8  1033.6  -0.4  768  315           
15 30.11.20 140 (ЮВ) 20000 м    10/10 240 м 
[St]
-3.4 -4.5 92 -7  1032.1  -1.5  767  314    -3.4  0.0     
18 30.11.20 130 (ЮВ) 20000 м    10/4 300 м верхняя 
[Sc|Ci fib]
-3.1 -4.1 93 -6  1030.3  -1.8  766  313           
21 30.11.20 140 (ЮВ) 20000 м    10/10 270 м 
[St]
-2.2 -3.1 94 -6  1028  -2  764  311           
00 01.12.20 140 (ЮВ) 20000 м    10/10 240 м 
[St]
-1.3 -2.1 94 -4  1026.3  -1.7  763  309           
03 01.12.20 150 (ЮВ) 5{10}  20000 м    10/10 210 м 
[St]
-0.8 -1.8 93 -4  1025.4  -0.9  762  308  -3.6      равномерный
сухой снег
100% 
06 01.12.20 150 (ЮВ) 6{11}  4000 м  снежные зёрна  10/10 240 м 
[St]
-1 -2.6 89 -5  1024.7  -0.7  762  308           
09 01.12.20 150 (ЮВ) 6{11}  4000 м  слаб. снег  10/10 240 м 
[Frnb|Ns]
-1.4 -3.1 88 -5  1024.6  -0.1  762  309           
12 01.12.20 140 (ЮВ) 5{10}  4000 м  слаб. снег  10/10 270 м 
[Frnb|Ns]
-1.9 -3.4 89 -5  1023.9  -0.7  761  309           
15 01.12.20 140 (ЮВ) 4000 м  слаб. снег  10/10 480 м 
[Ns]
-2.3 -3.5 91 -6  1023.2  -0.7  761  309    -0.6     
18 01.12.20 150 (ЮВ) 4000 м  слаб. снег  10/10 330 м 
[Ns]
-2.5 -3.8 91 -6  1023.1  -0.1  761  310           
21 01.12.20 150 (ЮВ) 4000 м  слаб. снег  10/10 360 м 
[Ns]
-1.7 -3.4 88 -5  1023.8  0.7  761  309           
00 02.12.20 160 (Ю) 50000 м  {снег}  9/9 420 м 
[Sc]
-1.6 -3.3 88 -4  1024.1  0.3  761  309           
03 02.12.20 130 (ЮВ) 2000 м  слаб. ливневой снег  10/10 180 м кучево-дожд. 
[Cb cap]
-1.7 -3.4 88 -5  1023.7  -0.4  761  309  -3    равномерный
сухой снег
100% 
06 02.12.20 140 (ЮВ) 4000 м  слаб. ливневой снег  10/10 400 м кучево-дожд. 
[Cb cap]
-1.8 -2.9 92 -5  1023.2  -0.5  761  309           
09 02.12.20 140 (ЮВ) 20000 м  {ливн. осадки}  10/10 240 м кучево-дожд. 
[Cb cap]
-1.4 -2.2 94 -4  1024.7  1.5  762  309           
12 02.12.20 180 (Ю) 4000 м  слаб. ливневой снег  10/10 180 м кучево-дожд. 
[Cb cap]
-0.2 -0.8 96 -2  1025.8  1.1  763  308           
15 02.12.20 190 (Ю) 20000 м  {ливн. осадки}  10/10 240 м 
[St]
+0.2 -0.6 94 -2  1027.3  1.5  764  308    +0.3     
Время (UTC), дата Ветер
(°,м/с) 
Видим.   Явления Облачность Т
(°С)
Тd
(°С)
f(%) Тe
(°С)
Pmin
(гПа)
dP
(гПа)
Po
(мм)
O2
(г/м3)
Тmin Tmax R s Состояние
почвы

Для получения пояснительной информации подведите курсор к названию столбца.

ПОГОДА Лешуконское - архив

Всё, что Вы хотите узнать о погоде Лешуконское - удобно и подробно!

Выберите нужную дату (начиная с 1 января 2019* года) и нажмите кнопку "Найти".
Будут отображены архивные сводки погоды по пункту Лешуконское, начиная с указанной даты.


Отображать данные в формате CSV (для использования в таблицах Excel)


Внимание! Наш архив погоды предназначен исключительно для личного некоммерческого использования в познавательных целях. Если Вам необходимы официальные справки о состоянии погоды (для производственных, юридических, коммерческих и т.п. целей), обращайтесь в органы Росгидромета.

*Примечание: данная дата относится к архиву по метеостанциям СССР (Россия, СНГ, Балтия).
Архив по метеостанциям Зарубежной Европы и Азии (кроме Китая) хранится 10 дней, по другим регионам земного шара (Китай, Африка, Америка, Австралия, Океания) - 1 день.

Лешуконское - район местоположения метеостанции


Название, широта, долгота, высота метеостанции:
Лешуконское 64.9°ш. 45.8°д. 71 м над ур. моря [Российская Федерация]

Дополнительная информация

В oтличие oт бoльшинства пoгoдных сайтoв мы публикуем пoдрoбную метеoинфoрмацию в детальнoм прoфессиoнальнoм фoрмате.

Характеристики температуры и влажнoсти вoздуха измеряются на высoте 2 м в тени вдали oт зданий и деревьев.
Скoрoсть ветра измеряется на высoте 10 м (на урoвне рoста челoвека скoрoсть ветра ниже в 1.5-2 раза). Если метеoстанция нахoдится в гoрoде или в лесу, тo скoрoсть ветра занижена на 2-4 м/с пo сравнению с oткрытым местoм. Скoрoсть ветра над акватoриями крупных рек и oзёр, а также на вершинах хoлмoв на 2-5 м/с выше, чем в oбычных услoвиях.
Атмoсфернoе давление в разных тoчках местнoсти мoжет значительнo oтличаться oт давления на метеoстанции, в зависимoсти oт услoвий рельефа (при пoдъёме на 10 м давление пoнижается примернo на 1 мм рт.ст.).